FO-98 (43933 NORAD) Tracking and Keplerian Element Data

This shows tracking and keplerian element data for the satellite.

Feedback or suggestion? Click here.




ElementValue
Catalog43933
NameFO-98
Epoch Orbit527
Epoch Day52.76209192
Epoch Year2019
RAAN114.0031
Inclination97.2986
Eccentricity0.0019291
Argument of Perigee131.625
Mean Anonmoly6.2789
Mean Motion15.21445126
Decay Rate6E-06
L11 43933U 19003B 19052.76209192 .00000600 00000-0 29598-4 0 9991
L22 43933 97.2986 114.0031 0019291 131.6250 6.2789 15.21445126 5272

Live tracking and technical data element details for FO-98 (NORAD 43933). FO-98 can be tracked NOW for your location showing map with azimuth and elevation plus other details from your city location.

Track the satellite on the map from your city or location and see movement details for azimuth, elevation, latitude, longitude, range, height, and movement on the map or in text.







IsCatalogInMostPopularTable: catalog: 43933, numindb: 13
Update: records affected: 1



GetName: 43933 FO-98

Hit Count: updated at: Sat, 23 Feb 2019 17:33:55 GMT